This is the latest recevied weather packets stored in our database for station/object IVARAZ6. If no packets are shown the sender has not sent any weather packets the latest 10 day(s).
| Time | Temp. | Humidity | Pressure | Rain* | Wind** | Luminosity | Snow |
|---|---|---|---|---|---|---|---|
| 1778202379 | 13.89° C | 79% | 1010.5 hPa | 0 mm | - | 0 W/m² | - |
| 1778201782 | 13.33° C | 83% | 1010.6 hPa | 0 mm | - | 0 W/m² | - |
| 1778200879 | 12.78° C | 85% | 1010.9 hPa | 0 mm | - | 0 W/m² | - |
| 1778199082 | 13.33° C | 87% | 1011.2 hPa | 0 mm | - | 0 W/m² | - |
| 1778197579 | 13.33° C | 88% | 1011.4 hPa | 0 mm | - | 0 W/m² | - |
| 1778197279 | 13.33° C | 88% | 1011.4 hPa | 0 mm | - | 0 W/m² | - |
| 1778196979 | 13.33° C | 88% | 1011.5 hPa | 0 mm | - | 0 W/m² | - |
| 1778196682 | 13.33° C | 88% | 1011.5 hPa | 0 mm | - | 0 W/m² | - |
| 1778195779 | 13.33° C | 87% | 1011.7 hPa | 0 mm | - | 0 W/m² | - |
| 1778195179 | 13.33° C | 87% | 1011.8 hPa | 0 mm | - | 0 W/m² | - |
| 1778194879 | 13.89° C | 87% | 1011.8 hPa | 0 mm | - | 0 W/m² | - |
| 1778194588 | 13.33° C | 87% | 1011.9 hPa | 0 mm | - | 0 W/m² | - |
| 1778194279 | 13.33° C | 88% | 1011.9 hPa | 0 mm | - | 0 W/m² | - |
| 1778192782 | 13.33° C | 90% | 1012.1 hPa | 0 mm | - | 0 W/m² | - |
| 1778192479 | 13.33° C | 90% | 1012 hPa | 0 mm | - | 0 W/m² | - |
| 1778192179 | 13.33° C | 89% | 1012 hPa | 0 mm | - | 0 W/m² | - |
| 1778190079 | 13.33° C | 89% | 1011.9 hPa | 0 mm | - | 0 W/m² | - |
| 1778189779 | 13.33° C | 89% | 1011.8 hPa | 0 mm | - | 0 W/m² | - |
| 1778188882 | 13.33° C | 89% | 1011.6 hPa | 0 mm | - | 0 W/m² | - |
| 1778187982 | 13.89° C | 89% | 1011.7 hPa | 0 mm | - | 0 W/m² | - |
| 1778185879 | 14.44° C | 89% | 1011.7 hPa | 0 mm | - | 0 W/m² | - |
| 1778184979 | 14.44° C | 89% | 1011.6 hPa | 0 mm | - | 0 W/m² | - |
| 1778184379 | 14.44° C | 89% | 1011.4 hPa | 0 mm | - | 0 W/m² | - |
| 1778183482 | 15° C | 89% | 1011.3 hPa | 0 mm | - | 0 W/m² | - |
| 1778181679 | 15.56° C | 88% | 1011.2 hPa | 0 mm | - | 0 W/m² | - |
* Rain latest hour (hover to see other rain measurements)
** Current wind speed in m/s (hover to see current wind gust speed)